SCP
0 0 0 0 0 0 0 0 0 0 0 0 0 0 0 0 0 0 0 0 0 0 0 0 0 0 0 0 0 0 0 0 0 0 0 0 0 0 0 0 0 0 0
0 0 0 0 0 0 0 0 0 0 0 0 0 0 0 0 0 0 0 0 0 0 0 0 0 0 0 0 0 0 0 0 0 0 0 0 0 0 0 0 0 0 0
0 0 0 0 0 0 0 0 0 0 0 0 0 0 0 0 0 0 0 0 0 0 0 0 0 0 0 0 0 0 0 0 0 0 0 0 0 0 0 0 0 0 0
0 0 0 0 0 0 0 0 0 0 0 0 0 0 0 0 0 0 0 0 0 0 0 0 0 0 0 0 0 0 0 0 0 0 0 0 0 0 0 0 0 0 0
0 0 0 0 0 0 0 0 0 0 0 0 0 0 0 0 0 0 0 0 0 0 0 0 0 0 0 0 0 0 0 0 0 0 0 0 0 0 0 0 0 0 0
0 0 0 0 0 0 0 0 0 0 0 0 0 0 0 0 0 0 0 0 0 0 0 0 0 0 0 0 0 0 0 0 0 0 0 0 0 0 0 0 0 0 0
0 0 0 0 0 0 0 0 0 0 0 0 0 0 0 0 0 0 0 0 0 0 0 0 0 0 0 0 0 0 0 0 0 0 0 0 0 0 0 0 0 0 0
0 0 0 0 0 0 0 0 0 0 0 0 0 0 0 0 0 0 0 0 0 0 0 0 0 0 0 0 0 0 0 0 0 0 0 0 0 0 0 0 0 0 0
0 0 0 0 0 0 0 0 0 0 0 0 0 0 0 0 0 0 0 0 0 0 0 0 0 0 0 0 0 0 0 0 0 0 0 0 0 0 0 0 0 0 0
0 0 0 0 0 0 0 0 0 0 0 0 0 0 0 0 0 0 0 0 0 0 0 0 0 0 0 0 0 0 0 0 0 0 0 0 0 0 0 0 0 0 0
0 0 0 0 0 0 0 0 0 0 0 0 0 0 0 0 0 0 0 0 0 0 0 0 0 0 0 0 0 0 0 0 0 0 0 0 0 0 0 0 0 0 0
0 0 0 0 0 0 0 0 0 0 0 0 0 0 0 0 0 0 0 0 0 0 0 0 0 0 0 0 0 0 0 0 0 0 0 0 0 0 0 0 0 0 0
0 0 0 0 0 0 0 0 0 0 0 0 0 0 0 0 0 0 0 0 0 0 0 0 0 0 0 0 0 0 0 0 0 0 0 0 0 0 0 0 0 0 0
0 0 0 0 0 0 0 0 0 0 0 0 0 0 0 0 0 0 0 0 0 0 0 0 0 0 0 0 0 0 0 0 0 0 -0 0 0 0 0 0 0 0 0
0 0 0 0 0 0 0 0 0 0 0 0 0 0 0 0 0 0 0 0 0 0 0 0 0 0 0 0 0 0 0 0 0 0 -0 0 0 0 0 0 0 0 0
0 0 0 0 0 0 0 0 0 0 0 0 0 0 0 0 0 0 0 0 0 0 0 0 0 0 0 0 0 0 0 0 0 0 0 0 0 0 0 0 0 0 0
0 0 0 0 0 0 0 0 0 0 0 0 0 0 0 0 0 0 0 0 0 0 0 0 0 0 0 0 0 0 0 0 0 0 0 0 0 0 0 0 0 0 0
0 0 0 0 0 0 0 0 0 0 0 0 0 0 0 0 0 0 0 0 0 0 0 0 0 0 0 0 0 0 0 0 0 0 0 0 0 0 0 0 0 0 0
0 0 0 0 0 0 0 0 0 0 0 0 0 0 0 0 0 0 0 0 0 0 0 0 0 0 0 0 0 0 0 0 0 0 0 0 0 0 0 0 0 0 0
0 0 0 0 0 0 0 0 0 0 0 0 0 0 0 0 0 0 0 0 0 0 0 0 0 0 0 0 0 0 0 0 0 0 0 0 0 0 0 0 0 0 0
0 0 0 0 0 0 0 0 0 0 0 0 0 0 0 0 0 0 0 0 0 0 0 0 0 0 0 0 0 0 0 0 0 0 0 0 0 0 0 0 0 0 0
0 0 0 0 0 0 0 0 0 0 0 0 0 0 0 0 0 0 0 0 0 0 0 0 0 0 0 0 0 0 0 0 0 0 0 0 0 0 0 0 0 0 0
0 0 0 0 0 0 0 0 0 0 0 0 0 0 0 0 0 0 0 0 0 0 0 0 0 0 0 0 0 0 0 0 0 0 0 0 0 0 0 0 0 0 0
0 0 0 0 0 0 0 0 0 0 0 0 0 0 0 0 0 0 0 0 0 0 0 0 0 0 0 0 0 0 0 0 0 0 0 0 0 0 0 0 0 0 0
0 0 0 0 0 0 0 0 0 0 0 0 0 0 0 0 0 0 0 0 0 0 0 0 0 0 0 0 0 0 0 0 0 0 0 0 0 0 0 0 0 0 0
0 0 0 0 0 0 0 0 0 0 0 0 0 0 0 0 0 0 0 0 0 0 0 0 0 0 0 0 0 0 0 0 0 0 0 0 0 0 0 0 0 0 0
Wind_Speed
3 4 5 8 7 8 8 9 10 11 12 13 14 15 15 16 17 18 19 20 20 21 22 22 23 24 25 25 25 26 26 27 27 27 27 27 27 26 26 26 25 15 25
5 3 8 9 8 8 8 9 9 10 11 12 13 14 15 15 16 17 18 19 20 20 21 22 23 23 24 25 25 25 26 26 27 26 25 23 25 26 26 26 26 18 26
4 2 5 10 9 8 8 8 8 9 10 11 12 13 14 15 16 16 17 18 19 20 20 21 22 23 23 24 24 24 25 26 26 25 22 13 16 24 25 25 25 25 25
5 4 3 10 9 8 8 8 8 8 9 10 11 12 13 14 15 16 16 17 18 18 19 20 21 22 22 23 23 24 24 25 25 24 13 12 12 21 25 25 25 25 26
5 4 3 11 10 9 8 7 7 8 9 10 11 12 12 13 14 15 15 16 17 17 18 19 19 20 21 22 23 23 24 24 24 18 12 12 10 20 25 25 25 25 25
5 3 3 12 10 9 8 7 6 7 8 9 10 11 12 12 13 14 14 15 15 16 17 18 19 20 20 21 22 23 24 24 18 10 9 10 11 20 25 25 24 24 24
5 2 2 11 10 9 8 7 6 7 7 8 10 11 11 12 12 12 13 14 14 15 16 17 18 19 20 21 21 22 23 23 15 11 10 10 13 24 25 25 25 25 25
6 3 1 10 11 9 8 7 6 6 7 8 9 10 10 11 11 12 12 13 14 14 15 16 17 18 19 20 20 21 22 21 15 13 10 10 19 25 25 25 25 25 25
6 4 2 3 4 8 8 7 7 7 7 7 8 9 10 10 10 11 12 12 13 14 14 16 17 18 18 19 20 20 20 21 11 8 12 10 21 26 26 25 26 25 26
4 4 4 3 4 4 2 6 8 7 7 7 8 9 9 9 9 10 10 11 12 13 13 15 16 17 18 18 19 19 19 16 7 7 6 11 24 25 26 26 26 26 26
6 5 5 5 4 4 3 4 5 6 7 7 5 8 8 4 3 5 8 11 11 12 13 14 15 16 16 16 17 18 14 5 6 6 6 18 24 25 25 26 26 26 26
9 7 6 6 6 5 4 4 3 3 4 5 4 5 4 3 2 4 7 10 10 11 12 13 14 14 11 5 9 13 4 6 5 5 8 22 23 24 25 25 26 26 27
9 8 8 7 7 6 4 4 3 3 3 4 5 5 4 3 2 2 2 3 4 6 4 7 7 4 4 4 5 5 5 5 4 5 9 21 23 24 25 25 25 26 27
9 10 9 8 7 7 5 4 4 3 3 3 5 6 4 3 2 2 1 1 1 1 2 3 3 5 5 5 5 6 6 5 4 4 7 20 22 23 24 25 26 26 27
12 13 11 10 9 7 6 5 5 5 5 5 4 5 5 4 3 3 1 1 1 1 2 3 3 4 5 5 5 6 6 7 7 6 6 17 21 21 23 24 25 27 28
16 15 12 12 11 9 7 6 5 5 5 5 5 6 7 5 4 3 3 1 1 1 1 1 3 3 3 4 6 6 7 7 7 7 6 10 18 20 22 23 25 27 28
15 14 14 14 12 10 9 9 6 5 5 5 5 6 7 6 5 4 3 3 2 2 2 2 3 3 4 4 6 7 7 7 7 8 8 6 7 15 20 23 25 27 28
13 14 15 14 13 12 10 8 6 6 6 5 5 5 7 7 6 5 4 4 3 3 2 3 3 3 4 4 5 6 6 7 8 8 7 6 5 7 12 22 25 26 28
15 15 16 15 14 14 11 8 6 6 6 5 5 5 7 7 7 5 5 4 4 3 3 4 3 3 4 5 6 6 6 7 8 9 7 7 7 7 6 15 22 25 27
13 14 15 16 14 12 8 5 4 5 5 5 6 7 8 7 8 6 5 5 4 3 4 4 4 4 4 5 7 8 7 8 7 7 8 6 6 8 8 9 9 14 25
13 15 16 16 14 11 7 7 6 6 5 5 7 8 9 8 8 7 5 5 5 5 5 5 4 4 4 3 4 5 7 8 8 6 5 5 7 8 8 8 7 7 10
17 17 17 18 17 16 12 7 5 4 4 5 5 7 9 9 9 8 7 6 6 5 5 5 5 3 3 2 2 4 5 4 3 7 6 7 8 6 7 10 8 10 9
18 21 19 20 19 17 13 7 4 3 2 4 6 7 9 10 10 8 8 7 6 6 6 6 6 6 4 3 4 3 3 5 6 5 6 7 7 6 7 7 10 10 11
21 17 17 18 18 16 15 14 13 12 11 11 7 7 8 10 9 9 8 8 7 6 6 7 6 5 5 5 3 5 6 5 5 7 5 4 7 8 8 10 10 10 11
15 14 15 15 16 17 18 19 18 15 10 5 5 7 8 8 9 9 9 8 8 7 7 7 6 6 5 6 5 4 6 6 7 8 13 11 7 6 8 8 8 9 11
11 12 13 16 18 17 19 19 20 19 13 9 9 9 8 6 7 9 9 8 8 7 8 8 8 8 7 8 7 6 5 6 6 7 11 15 15 10 8 7 9 10 10
Wind_Direction
199 230 175 125 108 91 76 66 58 51 46 42 39 38 37 36 34 32 30 29 28 28 28 28 28 28 28 28 27 27 29 31 28 24 17 10 5 5 7 7 5 357 1
166 209 152 130 114 99 84 72 63 56 50 44 41 39 37 37 35 32 30 29 28 27 27 27 28 28 28 26 25 25 28 31 25 22 18 9 0 0 4 5 2 359 359
137 114 130 133 122 109 95 81 70 61 54 48 44 41 38 36 35 32 30 29 28 28 27 27 26 27 26 25 24 24 27 31 23 21 16 7 353 356 2 2 0 358 356
136 109 117 140 129 118 105 90 77 68 59 52 47 43 39 37 36 32 29 29 28 27 27 26 26 25 24 23 22 23 25 29 23 20 11 1 352 350 359 0 358 356 354
138 121 173 142 136 126 114 100 85 74 65 57 51 46 41 38 38 32 29 29 27 27 26 26 26 25 23 21 20 21 23 27 24 17 5 356 348 347 357 358 357 354 350
147 133 197 148 143 135 125 112 96 81 71 63 57 50 43 40 39 33 28 29 26 26 25 25 26 25 23 20 19 20 20 23 25 8 1 353 340 344 354 354 353 351 347
157 152 217 158 151 144 136 125 109 92 80 70 64 56 46 41 40 34 28 29 27 26 25 25 25 24 23 19 18 19 19 19 20 3 356 351 332 348 350 351 350 347 345
157 146 26 171 159 155 147 138 123 107 94 81 73 64 51 44 40 34 28 29 28 27 25 24 24 23 23 19 17 17 17 19 13 359 350 345 336 345 347 347 345 343 342
155 142 111 71 137 158 156 152 139 124 110 96 85 77 62 51 42 37 27 29 29 28 25 24 23 22 22 17 15 14 15 13 12 353 349 335 335 341 342 342 341 339 337
167 163 151 127 112 101 109 161 149 137 124 111 100 92 77 61 47 38 25 27 29 28 24 24 23 22 22 15 11 11 12 9 355 346 342 325 336 337 337 337 336 335 333
191 191 173 163 155 149 153 160 141 139 132 115 102 106 97 84 64 33 22 31 29 29 23 23 23 21 22 13 7 7 9 355 345 340 331 327 333 333 332 332 332 331 329
196 198 191 181 174 169 162 127 122 117 118 124 122 116 119 116 96 71 35 35 31 30 24 23 23 22 19 8 1 4 356 344 342 332 327 327 328 329 328 327 327 326 325
193 195 191 189 181 174 163 156 153 143 142 147 152 150 140 126 96 82 59 34 25 31 26 18 18 16 8 359 351 345 338 336 327 318 317 323 325 324 324 323 322 322 321
189 199 193 189 184 184 174 170 167 165 165 169 172 165 155 154 156 153 136 87 40 22 13 12 8 1 356 347 338 326 320 314 306 302 303 319 320 321 320 320 319 318 317
198 200 196 189 190 184 178 183 178 181 180 179 176 177 171 168 171 170 167 141 27 13 9 355 351 344 334 322 310 305 299 295 291 287 296 310 316 317 317 317 316 315 314
203 202 196 194 194 185 186 189 185 185 183 179 182 186 182 177 175 175 179 185 224 259 284 299 297 298 291 288 285 281 279 280 278 277 278 298 308 314 315 315 315 313 311
202 199 197 198 194 192 193 194 189 188 183 186 189 189 187 183 181 178 183 200 218 225 243 259 273 265 263 267 271 274 272 267 269 273 279 276 287 305 311 314 314 310 309
198 197 200 200 195 198 197 193 189 188 189 194 190 188 192 190 184 180 188 208 213 209 222 243 252 257 259 264 267 269 268 266 267 271 274 274 275 285 301 309 310 310 310
200 198 199 201 196 197 197 192 189 187 196 196 190 191 195 194 188 184 195 209 206 207 220 244 244 230 255 266 269 265 257 258 265 274 273 272 270 275 280 301 308 311 309
201 201 202 202 200 191 186 180 185 198 206 199 197 198 194 195 192 188 198 209 204 208 223 229 245 244 240 257 276 278 266 262 261 260 263 268 268 277 285 287 294 301 304
200 202 203 202 198 184 178 182 186 204 202 203 206 201 197 195 193 190 199 202 202 210 222 222 231 257 258 243 269 278 266 256 249 250 248 257 265 273 276 281 283 284 294
204 205 204 205 199 196 196 181 175 173 190 200 200 201 200 197 195 196 197 201 203 211 223 224 214 234 257 250 259 305 311 290 249 246 244 254 262 264 272 283 281 284 284
208 207 206 205 202 199 188 165 147 135 149 179 199 204 202 198 196 196 194 197 202 203 217 221 211 216 243 249 203 221 283 291 304 255 238 251 253 257 265 272 277 279 285
214 207 207 203 202 196 186 188 188 195 203 201 192 193 192 195 196 196 196 197 203 206 215 223 218 211 220 248 233 217 220 236 285 301 277 250 249 263 262 275 280 280 281
210 202 204 201 202 197 195 199 201 210 210 179 175 185 193 196 198 198 199 199 204 209 214 219 222 218 216 231 233 228 236 242 233 261 289 294 277 253 257 260 268 273 277
200 198 197 200 205 199 199 203 206 211 199 183 187 192 195 196 200 202 203 202 206 209 215 220 223 225 228 232 239 234 232 239 245 246 272 289 292 283 259 257 264 268 271